NIMBUS 2 DEB, 59977

Orbit data source: Space-Track

NIMBUS 2 DEB, 59977 is space debris in SSO originally from a launch on Sun, 15 May 1966 UTC launched from the Air Force Western Test Range (AFWTR). Debris objects in space refer to the collection of defunct objects orbiting the Earth. Examples of debris include non-operational satellites, rocket bodies, and fragments generated from explosions, collisions, or faulty payload assembly.

Loading next visibility...
Identifier
59977, 1966-040CG
Orbit
SSO
Country
Flag of USUS
Related business
Manufacturer
Unknown
Mission
Spacecraft
Bus & Motor
Unknown
Mass
Unknown
Launch date (UTC)
1966-05-15 (59 years ago)
Launch vehicle
Unknown
Launch site
Air Force Western Test Range (AFWTR)
Object type
Payload
Rocket body
Debris
Shape & HBR
Unknown shape, 0.1 m
Radar Cross Section
Small (<0.1 m²)

Expand to show TLE details & history
Last TLE update: 19 hours ago

TLE from 19 hours ago
0 NIMBUS 2 DEB
1 59977U 66040CG  25286.90678107  .00001618  00000-0  30217-2 0  9995
2 59977 100.2951  93.0411 0051190  77.7868 282.8985 13.40255954425252
Epoch: 2025-10-13T21:45Z
TLE epoch observation values (Epoch: 2025-10-13T21:45:45.884Z)
Latitude
-0.00007°
Longitude
103.89709°
Altitude
1,102.708 km
Speed
7.305 km/s
True Right ascension
06h 12m 09s
True Declination
0° 00' 00"
Sunlit
Object was in daylight at epoch
Visualization orbit readout
Latitude
Unknown
Longitude
Unknown
Altitude
Unknown
Speed
Unknown
Apparent Right ascension
Unknown
Apparent Declination
Unknown
Sunlit
N/A
Visualization observer readout
Local Sidereal Time
11:47:47
Azimuth
Unknown
Elevation
Unknown
Doppler factor
Unknown
Orbital elements
Apogee altitude
1,143.981 km
Perigee altitude
1,067.362 km
Semi-major axis
7,483.809 km
Eccentricity
0.00512
Inclination
100.2951°
RAAN
93.0411°
Arg. of periapsis
77.7868°
True anomaly
282.3259°
Mean anomaly
282.8985°
Eccentric anomaly
282.61228°
Mean motion
3.35243 °/min
Orbital period
107.38 mins
BSTAR
0.0030217
Loading maneuver chart data...
Computing Atmospheric mass density...
Loading historical data...
Loading historical data...
Loading historical data...
Loading historical data...
Loading historical data...
Loading historical data...
Loading historical data...

Documentation

Showing up to 5 results
|